Regional Weather Roundup
Issued by NWS Boston, MA

Home | Current Version | Previous Version | Text Only | Print | Product List | Glossary On
Versions: 1 2 3 4 5 6 7 8 9 10 11 12 13 14 15 16 17 18 19 20 21 22 23 24 25 26 27 28 29 30 31 32 33 34 35 36 37 38 39 40 41 42 43 44 45 46 47 48 49 50
000
ASUS41 KBOX 280610
RWRBOX

REGIONAL WEATHER ROUNDUP
NATIONAL WEATHER SERVICE TAUNTON MA
200 AM EDT TUE JUL 28 2015

NOTE:  "FAIR" INDICATES FEW OR NO CLOUDS BELOW 12,000 FEET WITH NO
SIGNIFICANT WEATHER AND/OR OBSTRUCTIONS TO VISIBILITY.  THE FOLLOWING
OBSERVATION LOCATIONS DO NOT REPORT PRESENT WEATHER...PROVINCETOWN...
SMITHFIELD...BLOCK ISLAND...KEENE...AND OXFORD.

MAZALL-280700-
EASTERN MASSACHUSETTS

CITY           SKY/WX    TMP DP  RH WIND       PRES   REMARKS
BOSTON         CLEAR     72  69  90 SW13      29.99S
6HR MIN TEMP:  71; 6HR MAX TEMP:  76;

BEVERLY        CLEAR     72  67  84 SW6       29.98S
LAWRENCE       CLEAR     69  66  90 SW3       30.00S
BEDFORD        PTCLDY    69  67  93 SW6       29.98S
BLUE HILL        N/A     69  68  96 SW12      30.01S
NORWOOD        CLEAR     69  67  93 S5        30.00S
MARSHFIELD     CLEAR     70  70 100 SW5       30.01F
PLYMOUTH       MOCLDY    70  70 100 SW9       30.02S
TAUNTON        CLEAR     71  68  90 CALM      30.00F
NEW BEDFORD    CLOUDY    70  69  97 SW6       30.00F FOG
$$

MAZALL-280700-
CAPE COD AND THE ISLANDS

CITY           SKY/WX    TMP DP  RH WIND       PRES   REMARKS
FALMOUTH       CLEAR     68  68 100 SW6       30.02F
HYANNIS        CLEAR     73  70  90 SW8       30.01F
CHATHAM        CLEAR     69  68  96 S6        30.02F
PROVINCETOWN   CLEAR     70  63  78 S9        30.01S
NANTUCKET      PTCLDY    69  66  90 S8        30.03F
MARTHAS VNYRD  CLEAR     70  68  93 SW7       30.02F
$$

MAZALL-280700-
CENTRAL AND WESTERN MASSACHUSETTS

CITY           SKY/WX    TMP DP  RH WIND       PRES   REMARKS
WORCESTER      CLEAR     68  65  90 W10       30.03R
6HR MIN TEMP:  68; 6HR MAX TEMP:  73;

FITCHBURG      CLEAR     72  66  81 CALM      30.00S
ORANGE         FOG       65  64  97 CALM      30.02R VSB 1/2
SPRINGFIELD    CLEAR     64  63  97 CALM      30.00S
WESTFIELD      CLEAR     67  66  97 CALM      30.01R
NORTH ADAMS    MOCLDY    68  66  93 CALM      30.03R
PITTSFIELD     CLEAR     64  64 100 CALM      30.04R FOG
$$

RIZALL-280700-
RHODE ISLAND

CITY           SKY/WX    TMP DP  RH WIND       PRES   REMARKS
PROVIDENCE     FOG       70  69  97 S5        30.02R VSB 3/4
6HR MIN TEMP:  69; 6HR MAX TEMP:  75;

NEWPORT        CLOUDY    71  70  96 S7        30.01F
BLOCK ISLAND   CLOUDY    72  72 100 SW9       30.03F VSB 1
SMITHFIELD     PTCLDY    66  66 100 CALM      30.02R
WESTERLY       MOCLDY    72  70  93 SW6       30.01F
$$

CTZALL-280700-
CONNECTICUT

CITY           SKY/WX    TMP DP  RH WIND       PRES   REMARKS
BRADLEY INTL   PTCLDY    71  67  87 CALM      30.00S
6HR MIN TEMP:  71; 6HR MAX TEMP:  80;

HARTFORD       CLEAR     72  69  90 S7        29.99F
BRIDGEPORT     PTCLDY    75  71  87 SW5       30.00F
DANBURY        CLEAR     69  64  84 CALM      30.03F
GROTON         MOCLDY    70  69  97 SW3       30.00F FOG
NEW HAVEN      PTCLDY    71  69  93 S3        30.01F
CHESTER        NOT AVBL
MERIDEN        CLEAR     69  66  90 CALM      30.01F
WILLIMANTIC    PTCLDY    69  67  93 CALM      30.01F
OXFORD         CLEAR     72  63  73 CALM      30.04F
$$

MEZ002-015-021-024-NHZ003-005-008-011-012-014-VTZ005-008-280700-
NORTHERN NEW ENGLAND

CITY           SKY/WX    TMP DP  RH WIND       PRES   REMARKS
PORTLAND ME    MOCLDY    63  63 100 CALM      29.98F FOG
6HR MIN TEMP:  62; 6HR MAX TEMP:  66;

BANGOR ME      CLOUDY    64  63  96 CALM      29.99R
CONCORD NH     PTCLDY    70  67  90 CALM      29.99R
MANCHESTER NH  MOCLDY    70  67  90 VRB3      29.98R
NASHUA NH      NOT AVBL
PORTSMOUTH NH  MOCLDY    66  64  93 CALM      29.97S
JAFFREY NH     PTCLDY    65  64  97 CALM      30.04R FOG
KEENE NH       PTCLDY    64  61  88 CALM      30.03R
BURLINGTON VT  RAIN      71  67  87 CALM      30.02F FOG
MT. WASHINGTON FOG       52  52 100 W28         N/A  VSB 0
$$

NYZ052-076-280700-
EASTERN NEW YORK

CITY           SKY/WX    TMP DP  RH WIND       PRES   REMARKS
ALBANY         PTCLDY    73  68  84 S5        30.01R
6HR MIN TEMP:  72; 6HR MAX TEMP:  83;

NEW YORK CITY  CLEAR     77  67  71 SW8       30.00F
6HR MIN TEMP:  77; 6HR MAX TEMP:  80;

$$

ANZALL-280700-
MARINE OBSERVATIONS

STATION/POSITION TIME  TEMP    WIND        PRES    VSBY  WAVE
                       AIR SEA DIR/SP/G                  HT/PER
                 (UTC) (F)     (DEG/KT/KT) (MB)    (MI)  (FT/S)
BOSTON BUOY      0550   69 68  190/  8/ 10 1015.9F         2/ 9
BUZZARDS BAY     0500          200/ 12/ 13 1017.4F
NANTUCKET SOUND  0550   72 71  200/ 12/ 14 1016.3F         1/ 3
MASS BAY-STELLWA 0504   69 67  190/  8/ 10   N/A    1 7/8
ISLE OF SHOALS   0500   69     210/ 10/ 10 1014.8F
S OF BLOCK IS    0508      71                N/A           2/ 8
$$

......................KEY.........................
  SKY/WX - SKY CONDITION/PRESENT WEATHER
  TMP    - TEMPERATURE IN FAHRENHEIT
  DWPT   - DEWPOINT IN FAHRENHEIT
  RH     - RELATIVE HUMIDITY IN PERCENT
  WIND   - DIRECTION AND SPEED IN MPH
  PRES   - MEAN SEA LEVEL PRESSURE IN INCHES OF HG
  WCI    - WIND CHILL INDEX
  VSB    - VISIBILITY IN MILES
  HX     - HEAT INDEX
  TC     - TEMPERATURE IN CELSIUS
  VRB    - VARIABLE WIND DIRECTION
  N/A    - NOT AVAILABLE



USA.gov is the U.S. government's official web portal to all federal, state and local government web resources and services.